COSMOS 2251 DEB, 37961

Orbit data source: Space-Track

COSMOS 2251 DEB, 37961 is space debris in LEO originally from a launch on Wed, 16 Jun 1993 UTC launched from the Plesetsk Missile And Space Complex (PKMTR). The debris from Iridium 33, an American commercial communications satellite, has been tracked extensively since its accidental collision with the defunct Russian satellite Cosmos 2251 in 2009. This event, occurring at high speed in low Earth orbit (LEO), generated thousands of pieces of space debris, significantly increasing the risk of further collisions. The Iridium 33 debris cloud has impacted space traffic management and orbital debris mitigation strategies, making it a subject of ongoing study in space situational awareness.

Loading next visibility...
Identifier
37961, 1993-036BPL
Orbit
LEO
Country
Flag of CISCIS
Related business
Manufacturer
Unknown
Mission
Spacecraft
Bus & Motor
Unknown
Mass
Unknown
Launch date (UTC)
1993-06-16 (33 years ago)
Launch vehicle
Unknown
Launch site
Plesetsk Missile And Space Complex (PKMTR)
Object type
Payload
Rocket body
Debris
Shape & HBR
Unknown shape, 0.1 m
Radar Cross Section
Small (<0.1 m²)

Expand to show TLE details & history
Last TLE update: 4 days ago

TLE from 4 days ago
0 COSMOS 2251 DEB
1 37961U 93036BPL 26158.72392559  .00003393  00000-0  71428-3 0  9994
2 37961  74.0385 160.1180 0040059 198.2272 161.7461 14.59404646826466
Epoch: 2026-06-07T17:22Z
TLE epoch observation values (Epoch: 2026-06-07T17:22:27.170Z)
Latitude
-0.00001°
Longitude
3.38376°
Altitude
724.661 km
Speed
7.479 km/s
True Right ascension
10h 40m 28s
True Declination
0° 00' 00"
Sunlit
Object was in daylight at epoch
Visualization orbit readout
Latitude
Unknown
Longitude
Unknown
Altitude
Unknown
Speed
Unknown
Apparent Right ascension
Unknown
Apparent Declination
Unknown
Sunlit
N/A
Visualization observer readout
Local Sidereal Time
15:36:46
Azimuth
Unknown
Elevation
Unknown
Doppler factor
Unknown
Orbital elements
Apogee altitude
721.02 km
Perigee altitude
664.37 km
Semi-major axis
7,070.832 km
Eccentricity
0.00401
Inclination
74.0385°
RAAN
160.118°
Arg. of periapsis
198.2272°
True anomaly
161.8892°
Mean anomaly
161.7461°
Eccentric anomaly
161.81772°
Mean motion
3.65037 °/min
Orbital period
98.62 mins
BSTAR
0.00071428
Loading maneuver chart data...
Computing Atmospheric mass density...

Documentation

Showing up to 5 results
|